Погода в Томакомае

Япония     42°40′08″N   141°42′18″E
темп.,
°C
ветер,
м/с
пор.,
м/с
влажн.,
%
обл.,
%
осадки,
мм/ч
давл.,
гПа
погр.,
м
25 июля, вс
вс2500:00+20ююв249976 0.0 1013114
03:00+20ююв249897 0.0 1013174
06:00+22ююв249599 0.0 1013208
09:00+23ю458998 0.0 1013476
12:00+25ю568049 0.1 1012687
15:00+25ю57806 0.1 1011545
18:00+22ю46914 0.0 1012337
21:00+20ююв369815 0.0 1012186
26 июля, пн
пн2600:00+19ююв369826 0.0 1012173
03:00+20ю369865 0.0 1011242
06:00+20ююв359226 0.0 1011311
09:00+23ю44680 0.0 1010549
12:00+24ю56600 0.0 1010571
15:00+23ю57675 0.0 1008497
18:00+20ю36825 0.0 1008261
21:00+18ююв22926 0.0 100727
27 июля, вт
вт2700:00+17ссв119193 0.0 100611
03:00+16ссв2289100 0.0 100417
06:00+18с4884100 0.0 1004218
09:00+25с6965100 0.0 1002540
12:00+31с585473 0.0 9991194
15:00+24ссз358684 0.7 999118
18:00+24с59901 0.4 998295
21:00+23ссв258738 0.4 999139
28 июля, ср
ср2800:00+21ююз139519 0.0 99973
03:00+20св11950 0.0 99919
06:00+22св24870 0.0 1000164
09:00+28св236352 0.0 999854
12:00+25ююв357894 0.1 999350
15:00+23ююз3585100 0.3 999200
18:00+22ю3690100 0.1 999196
21:00+22ю0193100 0.5 100025
29 июля, чт
чт2900:00+21ссв1192100 0.3 100013
03:00+20с229397 0.3 100019
06:00+22св119171 0.1 100033
09:00+26всв017789 0.3 1000345
12:00+26ю457728 2.0 999599
15:00+25ю588516 3.2 999523
18:00+23ю399313 1.6 1000422
21:00+21ю259824 2.2 1001182